ONEWEB-0307, 49189

Orbit data source: Space-Track

ONEWEB-0307, 49189 is a payload satellite owned by One Web (NAA) (UK) in LEO that was launched on Tue, 14 Sep 2021 UTC via a SOYUZ-2-1B launch vehicle from the Tyuratam Missile And Space Complex (TTMTR). Payload-class satellites include a variety of spacecraft equipped with specific instruments for various scientific and technological missions. These include communications satellites like Starlink; space stations such as the ISS; scientific satellites like the Hubble; Earth observation satellites from companies like Planet Labs, Umbra, and HawkEye 360; GPS; miniature CubeSats for education and research; and military/defense satellites.

Loading next visibility...
Identifier
49189, 2021-083D
Orbit
LEO
Country
Flag of UKUK
Related business
Manufacturer
One Web
Mission
Operational Commercial Communications
Bus & Motor
ARROW, Unknown motor
Mass
148 kg wet, ~140 kg dry
Launch date (UTC)
2021-09-14 (5 years ago)
Launch vehicle
SOYUZ-2-1B
Launch site
Tyuratam Missile And Space Complex (TTMTR)
Object type
Payload
Rocket body
Debris
Shape & HBR
Trap Box + 2 Pan, 6.7 m
Radar Cross Section
3.464 m², Large (>1 m²)

Expand to show TLE details & history
Last TLE update: 2 days ago

TLE from 2 days ago
0 ONEWEB-0307
1 49189U 21083D   26171.43526830 -.00000267  00000-0 -76556-3 0  9992
2 49189  87.8958 319.5882 0001948  95.1692 264.9660 13.13470352231354
Epoch: 2026-06-20T10:26Z
TLE epoch observation values (Epoch: 2026-06-20T10:26:47.181Z)
Latitude
0.00005°
Longitude
-105.75832°
Altitude
1,212.786 km
Speed
7.248 km/s
True Right ascension
21h 18m 21s
True Declination
0° 00' 00"
Sunlit
Object was in full shadow at epoch
Visualization orbit readout
Latitude
Unknown
Longitude
Unknown
Altitude
Unknown
Speed
Unknown
Apparent Right ascension
Unknown
Apparent Declination
Unknown
Sunlit
N/A
Visualization observer readout
Local Sidereal Time
21:36:10
Azimuth
Unknown
Elevation
Unknown
Doppler factor
Unknown
Orbital elements
Apogee altitude
1,208.357 km
Perigee altitude
1,205.402 km
Semi-major axis
7,585.016 km
Eccentricity
0.00019
Inclination
87.8958°
RAAN
319.5882°
Arg. of periapsis
95.1692°
True anomaly
264.94376°
Mean anomaly
264.966°
Eccentric anomaly
264.95488°
Mean motion
3.28555 °/min
Orbital period
109.57 mins
BSTAR
-0.00076556
Loading maneuver chart data...
Computing Atmospheric mass density...
Loading historical data...
Loading historical data...
Loading historical data...
Loading historical data...
Loading historical data...
Loading historical data...
Loading historical data...

Documentation

Showing up to 5 results
|